Estación Meteorológica Peña el Pijo (Robertgarden) [ 07/07/20 10:03:10 CEST ]

Fecha Hora Presion(HPa) Temp (°C) Humedad % Rocio (°C) Viento ( m/s) Direccion Lluvia 1Hora(mm) Lluvia 24H(mm) LLuvia Total(mm)
2020-May-12 01:08:55 1004.700 - - - - W     39.88
2020-May-12 02:09:51 1003.600 - - - - W     39.88
2020-May-12 03:09:26 1003.200 - - - - W     39.88
2020-May-12 04:09:21 1002.700 - - - - W     39.88
2020-May-12 05:09:09 1002.800 - - - - W     39.88
2020-May-12 06:09:42 1002.200 - - - - W     39.88
2020-May-12 07:09:35 1001.600 - - - - W     39.88
2020-May-12 08:09:07 1001.500 - - - - W     39.88
2020-May-12 09:09:07 1001.200 - - - - W     39.88
2020-May-12 10:09:44 1001.200 - - - - W     39.88
2020-May-12 11:09:10 1001.100 - - - - W     39.88
2020-May-12 12:09:32 1000.300 - - - - W     39.88
2020-May-12 13:09:20 1000.400 - - - - W     39.88
2020-May-12 14:09:16 1000.200 - - - - W     39.88
2020-May-12 15:08:57 1000.200 - - - - W     39.88
2020-May-12 16:09:25 1000.200 - - - - W     39.88
2020-May-12 17:09:30 999.300 - - - - W     39.88
2020-May-12 18:09:06 998.900 - - - - W     39.88
2020-May-12 19:08:45 998.300 - - - - W     39.88
2020-May-12 20:08:45 998.400 - - - - W     39.88
2020-May-12 21:09:22 999.500 - - - - W     39.88
2020-May-12 22:09:08 999.700 - - - - W     39.88
2020-May-12 23:08:57 999.800 - - - - W     39.88

Temperatura Máxima:    Temperatura Mínima:
Presión Máxima:1004.700 Hpa    Presión Mínima:998.300 Hpa


Volver